Simultaneous Nadir Overpasses (SNOs) Predictions

Prediction of SNOs between AQUA and NPP Satellite Orbit:

Table of predicted SNOs for the next 14.0 days since TLE Epoch: 3/4/2023
Index Date (AQUA) Time (AQUA) Lat,Lon (AQUA) SZA (AQUA ) Date (NPP) Time (NPP) Lat,Lon (NPP) SZA (NPP ) Distance(km) Time Diff (sec)
1 03/06/2023 09:00:59 -79.43, 121.95 81.54 03/06/2023 09:00:28 -79.42, 121.81 81.49 2.93 31
2 03/06/2023 09:50:14 79.78, -67.79 97.92 03/06/2023 09:51:01 79.79, -67.65 97.86 2.81 47
3 03/08/2023 23:36:52 -79.43, -97.00 82.57 03/08/2023 23:35:58 -79.42, -97.05 82.52 0.94 54
4 03/09/2023 00:26:10 79.67, 72.39 97.06 03/09/2023 00:26:35 79.67, 72.34 97.05 1.11 25
5 03/11/2023 14:13:37 -77.15, 32.39 80.64 03/11/2023 14:12:23 -77.31, 31.60 80.49 26.44 74
6 03/11/2023 15:02:03 79.60,-147.08 96.13 03/11/2023 15:02:07 79.59,-147.17 96.14 1.71 4
7 03/14/2023 05:37:51 79.60, -5.96 95.08 03/14/2023 05:37:35 79.61, -5.91 95.08 1.02 16
8 03/14/2023 06:27:12 -79.78, 163.03 85.22 03/14/2023 06:28:15 -79.78, 162.96 85.25 1.37 63
9 03/16/2023 20:13:40 79.54, 134.68 94.12 03/16/2023 20:13:06 79.55, 134.71 94.13 0.68 34



Historial Predications of SNOs between AQUA and NPP
